User: anonymous   Login
Location: Bouchavesnes-Bergen
(49.9859°N, 2.9203°E)
Time: 15:11:42
(UTC+00:00)
Language:

NOSS 0 Rocket - Orbit

View from above orbital plane
View from above orbital plane
View from above satellite
View from above satellite

Ground track
Ground track

The orbit data is extracted from the following two-line orbital elements,

1 05679U 71110B   21131.88111475 -.00000039  00000-0  10655-4 0  9994
2 05679  69.9965 311.6408 0013716 329.7898  30.2410 13.85353681111400
Epoch (UTC): 11 May 2021 21:08:48
Eccentricity: 0.0013716
inclination: 69.9965°
perigee height: 935 km
apogee height: 955 km
right ascension of ascending node: 311.6408°
argument of perigee: 329.7898°
revolutions per day: 13.85353681
mean anomaly at epoch: 30.2410°
orbit number at epoch: 11140

The dashed part of the orbit path shows where the satellite is in the earth's shadow,  

DLR